[[{"header":{"parameterUnit":"m.s-1","parameterCategory":1,"la1":30.2992,"la2":30.254,"lo1":-89.0895,"lo2":-89.0443,"dy":0.0025,"dx":0.0025,"nx":19,"ny":19,"refTime":"2026-05-24T09:00:00:Z","depth":0,"parameterNumber":2,"parameterNumberName":"U-component_of_WINDS"},"data":[0,0,0,-0.7986,-0.7984,-0.7862,-0.7861,-0.772,-0.7719,0,0,0,0,0,0,0,0,0,0,0,-0.8033,-0.8032,-0.7986,-0.7983,-0.7862,-0.7861,-0.7721,-0.7719,0,0,0,0,0,0,0,0,0,0,0,-0.8033,-0.8032,-0.8032,-0.7983,-0.7862,-0.7861,-0.7721,-0.7807,0,0,0,0,0,0,0,0,0,0,-0.7922,-0.7977,-0.8033,-0.8032,-0.7982,-0.7862,-0.7861,-0.7811,-0.7802,-0.7782,0,-0.777,0,-0.7743,-0.7711,-0.7711,0,0,0,-0.7974,-0.7984,-0.7942,-0.8032,-0.7981,-0.7863,-0.7914,-0.7805,-0.7795,-0.777,-0.7768,-0.7762,-0.7741,-0.771,-0.771,-0.7635,-0.7635,0,0,-0.7981,-0.8016,-0.795,-0.7936,-0.7958,-0.7918,-0.7911,-0.7799,-0.7798,-0.7768,-0.7759,-0.7738,-0.7709,-0.7709,-0.7634,-0.7635,0,0,0,-0.8006,-0.8021,-0.7981,-0.7942,-0.792,-0.7915,-0.7906,-0.7803,-0.7787,-0.7757,-0.7737,-0.7709,-0.7707,-0.7634,-0.7634,-0.7673,0,0,0,-0.801,-0.8036,-0.7985,-0.8005,-0.7922,-0.786,-0.7913,-0.7795,-0.7781,-0.7737,-0.7709,-0.7706,-0.7634,-0.7634,-0.7672,-0.7686,0,0,0,-0.8037,-0.8039,-0.8025,-0.8007,-0.7956,-0.7861,-0.7839,-0.7791,-0.7769,-0.7711,-0.7706,-0.7634,-0.7634,-0.7671,-0.7684,-0.7677,0,0,0,-0.8075,-0.806,-0.8027,-0.8001,-0.7958,-0.7887,-0.7839,-0.7783,-0.7738,-0.7708,-0.7634,-0.7634,-0.7671,-0.7682,-0.7676,-0.7679,-0.7683,0,0,-0.8075,-0.8061,-0.8043,-0.801,-0.7955,-0.7902,-0.7851,-0.7775,-0.7736,-0.767,-0.7668,-0.7672,-0.7683,-0.7677,-0.7693,-0.7697,0,0,0,-0.8055,-0.8043,-0.8021,-0.7981,-0.7924,-0.7876,-0.7804,-0.7776,-0.7719,-0.771,-0.7667,-0.7672,-0.7667,-0.7666,-0.7669,-0.7663,-0.7636,-0.7636,-0.7636,-0.8106,-0.8059,-0.8027,-0.7966,-0.7927,-0.7854,-0.7818,-0.7767,-0.7729,-0.7719,-0.77,-0.7716,-0.7717,-0.7719,-0.7713,-0.7696,-0.7697,-0.7697,-0.7697,-0.8103,-0.8079,-0.8031,-0.7983,-0.7932,-0.789,-0.7819,-0.7794,-0.7746,-0.7726,-0.7719,-0.7703,-0.7725,-0.7716,-0.7699,-0.7699,-0.7698,-0.7698,-0.7698,-0.8132,-0.8112,-0.8079,-0.8017,-0.7974,-0.7911,-0.7868,-0.7823,-0.7779,-0.7772,-0.7747,-0.7746,-0.7741,-0.7764,-0.7764,-0.7764,-0.7764,-0.7764,-0.7764,-0.8175,-0.8137,-0.8108,-0.8047,-0.8016,-0.7969,-0.7895,-0.7862,-0.7814,-0.7784,-0.7783,-0.7747,-0.7736,-0.7734,-0.7764,-0.7764,-0.7764,-0.7764,-0.7764,-0.8191,-0.8181,-0.8136,-0.8105,-0.803,-0.799,-0.7933,-0.787,-0.7836,-0.7816,-0.778,-0.778,-0.7761,-0.7758,-0.7757,-0.7791,-0.7791,-0.7791,-0.7791,-0.8216,-0.8203,-0.8148,-0.8102,-0.805,-0.7994,-0.7944,-0.7887,-0.7825,-0.78,-0.7788,-0.7782,-0.7782,-0.7763,-0.776,-0.7758,-0.7792,-0.7792,-0.7792,-0.8224,-0.8204,-0.8171,-0.8113,-0.8051,-0.7998,-0.795,-0.7896,-0.7823,-0.7791,-0.778,-0.778,-0.777,-0.7769,-0.7738,-0.7734,-0.773,0,0]},{"header":{"parameterUnit":"m.s-1","parameterCategory":1,"la1":30.2992,"la2":30.254,"lo1":-89.0895,"lo2":-89.0443,"dy":0.0025,"dx":0.0025,"nx":19,"ny":19,"refTime":"2026-05-24T09:00:00:Z","depth":0,"parameterNumber":3,"parameterNumberName":"V-component_of_WINDS"},"data":[0,0,0,-1.0026,-1.0024,-0.99,-0.99,-0.9756,-0.9755,0,0,0,0,0,0,0,0,0,0,0,-1.0075,-1.0074,-1.0026,-1.0023,-0.99,-0.99,-0.9756,-0.9755,0,0,0,0,0,0,0,0,0,0,0,-1.0075,-1.0074,-1.0074,-1.0023,-0.99,-0.99,-0.9756,-0.9843,0,0,0,0,0,0,0,0,0,0,-0.996,-1.0018,-1.0074,-1.0074,-1.0022,-0.9901,-0.99,-0.9847,-0.9838,-0.9819,0,-0.9808,0,-0.978,-0.9746,-0.9746,0,0,0,-1.0013,-1.0026,-0.9982,-1.0074,-1.0021,-0.9901,-0.9953,-0.9842,-0.9831,-0.9807,-0.9806,-0.98,-0.9777,-0.9745,-0.9745,-0.9679,-0.9679,0,0,-1.002,-1.0058,-0.999,-0.9976,-1.0001,-0.9957,-0.9949,-0.9835,-0.9836,-0.9806,-0.9797,-0.9775,-0.9745,-0.9744,-0.9679,-0.9679,0,0,0,-1.0046,-1.0063,-1.0022,-0.9983,-0.996,-0.9954,-0.9945,-0.9841,-0.9824,-0.9795,-0.9773,-0.9744,-0.9742,-0.9678,-0.9679,-0.9727,0,0,0,-1.005,-1.0078,-1.0025,-1.0047,-0.9962,-0.9899,-0.9953,-0.9832,-0.9818,-0.9774,-0.9744,-0.9741,-0.9678,-0.9679,-0.9725,-0.9742,0,0,0,-1.0078,-1.0082,-1.0068,-1.0049,-0.9998,-0.99,-0.9877,-0.9828,-0.9806,-0.9746,-0.9741,-0.9678,-0.9679,-0.9723,-0.9739,-0.9737,0,0,0,-1.0118,-1.011,-1.007,-1.0052,-1.0,-0.9932,-0.9877,-0.9824,-0.9779,-0.9743,-0.9678,-0.9679,-0.9723,-0.9738,-0.9736,-0.9743,-0.9749,0,0,-1.0128,-1.0112,-1.0099,-1.0059,-1.001,-0.9948,-0.9903,-0.9823,-0.978,-0.9714,-0.9712,-0.9725,-0.9739,-0.9737,-0.9772,-0.9778,0,0,0,-1.0114,-1.0105,-1.0084,-1.0045,-0.9987,-0.9937,-0.9861,-0.9831,-0.9774,-0.9756,-0.9722,-0.9729,-0.9726,-0.9728,-0.9732,-0.9727,-0.9681,-0.9681,-0.9681,-1.0182,-1.0132,-1.0106,-1.0041,-1.0004,-0.9927,-0.989,-0.9837,-0.9793,-0.9786,-0.9766,-0.9795,-0.9798,-0.9801,-0.9797,-0.9766,-0.9766,-0.9766,-0.9766,-1.0193,-1.0172,-1.0119,-1.0075,-1.0021,-0.9981,-0.9906,-0.9877,-0.9831,-0.9805,-0.9799,-0.9776,-0.9809,-0.9802,-0.9769,-0.9769,-0.9768,-0.9768,-0.9768,-1.0232,-1.0213,-1.018,-1.012,-1.0078,-1.0011,-0.9971,-0.9921,-0.9873,-0.9868,-0.9842,-0.9841,-0.9834,-0.986,-0.986,-0.986,-0.986,-0.986,-0.986,-1.0285,-1.0247,-1.0221,-1.0161,-1.013,-1.0083,-1.0006,-0.9972,-0.9923,-0.9889,-0.9889,-0.9847,-0.9822,-0.9818,-0.9861,-0.9861,-0.9861,-0.9861,-0.9861,-1.0315,-1.0301,-1.0262,-1.0232,-1.0156,-1.0119,-1.0057,-0.9994,-0.9959,-0.994,-0.9899,-0.989,-0.9868,-0.9864,-0.986,-0.9911,-0.9911,-0.9911,-0.9911,-1.0348,-1.0334,-1.0284,-1.0239,-1.0188,-1.0129,-1.0084,-1.0024,-0.9958,-0.9933,-0.9918,-0.9908,-0.9906,-0.9885,-0.9881,-0.9876,-0.993,-0.993,-0.993,-1.0364,-1.0343,-1.0316,-1.0256,-1.0194,-1.0141,-1.0097,-1.0044,-0.9966,-0.993,-0.9912,-0.9911,-0.9894,-0.9892,-0.9855,-0.9849,-0.9839,0,0]}]]